Retour au catalogue

HAWK-A

ActifMilitaireSSO
NORAD 43765·PAYLOAD·🇺🇸 United States

Lancé Dec 3, 2018 depuis Vandenberg Space Force Base

Loading…

Prochains Passages (prochaines 24 heures)

TLE

FraisSource: Space-Track

Époque: Sep 14, 2026, 09:06 UTC

1 43765U 18099H   26257.37964618  .00004760  00000-0  18713-3 0  9998
2 43765  97.3818 308.4692 0033073 333.6044  26.3508 15.25647529426691

Suivez HAWK-A en temps réel avec AllMySat

Download on the App Store